TimeEST,TemperatureF,Dew PointF,Humidity,Sea Level PressureIn,VisibilityMPH,Wind Direction,Wind SpeedMPH,Gust SpeedMPH,PrecipitationIn,Events,Conditions,WindDirDegrees,DateUTC
12:52 AM,7.0,-2.0,67,30.01,3.0,West,11.5,19.6,0.00,Snow,Light Snow,270,2014-02-28 05:52:00
12:58 AM,7.0,-0.9,70,29.97,1.8,West,9.2,19.6,0.00,Snow,Light Snow,280,2014-02-28 05:58:00
1:11 AM,7.0,-2.0,67,29.98,3.0,West,11.5,21.9,0.00,Snow,Light Snow,270,2014-02-28 06:11:00
1:28 AM,7.0,-6.0,55,29.99,10.0,West,15.0,28.8,0.00,,Scattered Clouds,280,2014-02-28 06:28:00
1:52 AM,6.1,-8.0,53,30.05,10.0,West,13.8,26.5,0.00,,Scattered Clouds,270,2014-02-28 06:52:00
3:52 AM,3.0,-11.0,52,30.12,10.0,West,4.6,-,N/A,,Clear,280,2014-02-28 08:52:00
4:52 AM,1.9,-9.9,58,30.17,10.0,West,5.8,-,N/A,,Clear,270,2014-02-28 09:52:00
5:52 AM,1.9,-9.9,58,30.21,10.0,West,8.1,-,N/A,,Clear,260,2014-02-28 10:52:00
6:52 AM,1.9,-9.9,58,30.25,10.0,Variable,5.8,-,N/A,,Clear,0,2014-02-28 11:52:00
7:52 AM,3.9,-9.0,55,30.30,10.0,WSW,10.4,-,N/A,,Clear,240,2014-02-28 12:52:00
8:52 AM,7.0,-9.9,46,30.33,10.0,Variable,6.9,-,N/A,,Clear,0,2014-02-28 13:52:00
9:52 AM,9.0,-11.9,38,30.35,10.0,West,9.2,-,N/A,,Clear,270,2014-02-28 14:52:00
10:52 AM,12.0,-15.0,29,30.35,10.0,NW,5.8,17.3,N/A,,Clear,310,2014-02-28 15:52:00
11:52 AM,12.9,-15.0,28,30.34,10.0,NNW,9.2,-,N/A,,Clear,330,2014-02-28 16:52:00
12:52 PM,15.1,-13.0,28,30.35,10.0,West,11.5,17.3,N/A,,Clear,270,2014-02-28 17:52:00
1:52 PM,15.1,-11.9,29,30.35,10.0,West,11.5,-,N/A,,Clear,260,2014-02-28 18:52:00
2:52 PM,16.0,-13.0,27,30.36,10.0,NW,8.1,-,N/A,,Clear,320,2014-02-28 19:52:00
3:52 PM,16.0,-11.9,28,30.38,10.0,Variable,6.9,-,N/A,,Clear,0,2014-02-28 20:52:00
4:52 PM,16.0,-13.0,27,30.37,10.0,West,4.6,-,N/A,,Clear,270,2014-02-28 21:52:00
5:52 PM,10.0,-8.0,44,30.39,10.0,Calm,Calm,-,N/A,,Clear,0,2014-02-28 22:52:00
7:52 PM,3.0,-7.1,63,30.41,10.0,Calm,Calm,-,N/A,,Clear,0,2014-03-01 00:52:00
8:52 PM,1.9,-8.0,63,30.43,10.0,Calm,Calm,-,N/A,,Clear,0,2014-03-01 01:52:00
9:52 PM,1.0,-8.0,66,30.45,10.0,Calm,Calm,-,N/A,,Clear,0,2014-03-01 02:52:00
10:52 PM,1.9,-8.0,63,30.44,10.0,SE,3.5,-,N/A,,Clear,140,2014-03-01 03:52:00
11:52 PM,-0.0,-9.0,66,30.46,10.0,Calm,Calm,-,N/A,,Clear,0,2014-03-01 04:52:00